Regional Weather Roundup
Issued by NWS Goodland, KS

Home | Current Version | Previous Version | Graphics & Text | Print | Product List | Glossary On
Versions: 1 2 3 4 5 6 7 8 9 10 11 12 13 14 15 16 17 18 19 20 21 22 23 24 25 26 27 28 29 30 31 32 33 34 35 36 37 38 39 40 41 42 43 44 45 46 47 48 49 50
000
ASUS43 KGLD 270108
RWRGLD

GOODLAND FORECAST AREA HOURLY WEATHER ROUNDUP
NATIONAL WEATHER SERVICE GOODLAND KS
700 PM MDT MON SEP 26 2016

...OFFICIAL OBSERVATIONS...

CITY           SKY/WX    TMP DP  RH WIND       PRES   REMARKS
GOODLAND KS    CLEAR     64  40  41 CALM      30.23R
HILL CITY KS   CLEAR     62  51  67 CALM      30.17R
IMPERIAL NEB   CLEAR     67  39  35 N5        30.21R
MCCOOK NEB     CLEAR     68  41  37 NW8       30.17R
AKRON CO       CLEAR     63  36  36 NE7       30.28R
BURLINGTON CO  CLEAR     67  36  31 NE5       30.26S
LIMON CO       CLEAR     59  29  31 NE8       30.32R
$$

...UNOFFICIAL OBSERVATIONS...

CITY           SKY/WX    TMP DP  RH WIND       PRES   REMARKS
COLBY KS       CLEAR     66  43  42 N6        30.22R
LENORA KS        N/A     70  32  24 MISG        N/A
NORTON KS      CLEAR     68  34  28 S3        30.15
SHARON SPRINGS   N/A     68  42  38 CALM        N/A
KIT CARSON CO    N/A     65  40  39 CALM        N/A
$$




USA.gov is the U.S. government's official web portal to all federal, state and local government web resources and services.